• In United Kingdom
  • List of Countries
  • For 7 days
  • Water Temperature
  • Satellite Maps
  • Weather Map
  • Weather Widgets
  • user-avatar
    Login

    Hourly Weather Inhambane

    Today, 21 September, Thursday

    Time Temperature Precipitation Wind Pressure Humidity
    00:00 +30°C° 0 mm 2 mps 721 mmHg 38%
    01:00 +30°C° 0 mm 1 mps 721 mmHg 37%
    02:00 +29°C° 0 mm 1 mps 720 mmHg 36%
    03:00 +29°C° 0 mm 2 mps 720 mmHg 36%
    04:00 +29°C° 0 mm 2 mps 720 mmHg 35%
    05:00 +29°C° 0 mm 2 mps 720 mmHg 34%
    06:00 +30°C° 0 mm 2 mps 721 mmHg 30%
    07:00 +33°C° 0 mm 3 mps 721 mmHg 26%
    08:00 +35°C° 0 mm 3 mps 721 mmHg 22%
    09:00 +36°C° 0 mm 3 mps 721 mmHg 20%
    10:00 +37°C° 0 mm 3 mps 721 mmHg 17%
    11:00 +40°C° 0 mm 4 mps 721 mmHg 15%
    12:00 +40°C° 0 mm 4 mps 721 mmHg 15%
    13:00 +41°C° 0 mm 4 mps 720 mmHg 15%
    14:00 +41°C° 0 mm 5 mps 720 mmHg 15%
    15:00 +40°C° 0 mm 5 mps 720 mmHg 17%
    16:00 +39°C° 0 mm 5 mps 719 mmHg 20%
    17:00 +37°C° 0 mm 5 mps 719 mmHg 22%
    18:00 +36°C° 0 mm 4 mps 719 mmHg 25%
    19:00 +34°C° 0 mm 4 mps 719 mmHg 29%
    20:00 +33°C° 0 mm 3 mps 720 mmHg 32%
    21:00 +32°C° 0 mm 2 mps 720 mmHg 32%
    22:00 +31°C° 0 mm 2 mps 720 mmHg 31%
    23:00 +31°C° 0 mm 2 mps 720 mmHg 31%

    Tomorrow, 22 September, Friday

    Time Temperature Precipitation Wind Pressure Humidity
    00:00 +31°C° 0 mm 2 mps 720 mmHg 30%
    01:00 +30°C° 0 mm 2 mps 719 mmHg 30%
    02:00 +30°C° 0 mm 2 mps 719 mmHg 29%
    03:00 +29°C° 0 mm 2 mps 719 mmHg 28%
    04:00 +29°C° 0 mm 2 mps 719 mmHg 28%
    05:00 +29°C° 0 mm 2 mps 719 mmHg 27%
    06:00 +31°C° 0 mm 3 mps 719 mmHg 24%
    07:00 +33°C° 0 mm 3 mps 720 mmHg 21%
    08:00 +35°C° 0 mm 4 mps 720 mmHg 18%
    09:00 +37°C° 0 mm 4 mps 720 mmHg 16%
    10:00 +38°C° 0 mm 4 mps 720 mmHg 14%
    11:00 +40°C° 0 mm 4 mps 720 mmHg 12%
    12:00 +41°C° 0 mm 5 mps 720 mmHg 13%
    13:00 +41°C° 0 mm 5 mps 719 mmHg 14%
    14:00 +42°C° 0 mm 5 mps 719 mmHg 14%
    15:00 +41°C° 0 mm 5 mps 719 mmHg 17%
    16:00 +40°C° 0 mm 5 mps 719 mmHg 20%
    17:00 +39°C° 0 mm 5 mps 718 mmHg 22%
    18:00 +36°C° 0 mm 4 mps 719 mmHg 27%
    19:00 +35°C° 0 mm 4 mps 719 mmHg 32%
    20:00 +33°C° 0 mm 3 mps 720 mmHg 36%
    21:00 +33°C° 0 mm 3 mps 720 mmHg 37%
    22:00 +31°C° 0 mm 2 mps 720 mmHg 38%
    23:00 +31°C° 0 mm 2 mps 720 mmHg 39%

    Day after tomorrow, 23 September, Saturday

    Time Temperature Precipitation Wind Pressure Humidity
    00:00 +31°C° 0 mm 2 mps 720 mmHg 38%
    01:00 +30°C° 0 mm 2 mps 719 mmHg 38%
    02:00 +30°C° 0 mm 2 mps 719 mmHg 37%
    03:00 +29°C° 0 mm 2 mps 719 mmHg 36%
    04:00 +29°C° 0 mm 2 mps 719 mmHg 36%
    05:00 +29°C° 0 mm 2 mps 719 mmHg 35%
    06:00 +31°C° 0 mm 2 mps 720 mmHg 31%
    07:00 +33°C° 0 mm 3 mps 721 mmHg 27%
    08:00 +35°C° 0 mm 3 mps 721 mmHg 23%
    09:00 +37°C° 0 mm 3 mps 721 mmHg 20%
    10:00 +38°C° 0 mm 4 mps 721 mmHg 16%
    11:00 +41°C° 0 mm 4 mps 721 mmHg 13%
    12:00 +41°C° 0 mm 5 mps 721 mmHg 14%
    13:00 +41°C° 0 mm 5 mps 720 mmHg 15%
    14:00 +42°C° 0 mm 6 mps 719 mmHg 16%
    15:00 +41°C° 0 mm 5 mps 719 mmHg 19%
    16:00 +40°C° 0 mm 5 mps 719 mmHg 22%
    17:00 +38°C° 0 mm 4 mps 719 mmHg 25%
    18:00 +36°C° 0 mm 3 mps 720 mmHg 30%
    19:00 +35°C° 0 mm 3 mps 720 mmHg 34%
    20:00 +34°C° 0 mm 2 mps 720 mmHg 39%
    21:00 +32°C° 0 mm 2 mps 720 mmHg 40%
    22:00 +32°C° 0 mm 1 mps 720 mmHg 42%
    23:00 +31°C° 0 mm 1 mps 720 mmHg 43%

    24 September, Sunday

    Time Temperature Precipitation Wind Pressure Humidity
    00:00 +31°C° 0 mm 1 mps 720 mmHg 42%
    01:00 +30°C° 0 mm 2 mps 719 mmHg 40%
    02:00 +30°C° 0 mm 2 mps 719 mmHg 39%
    03:00 +30°C° 0 mm 2 mps 719 mmHg 37%
    04:00 +29°C° 0 mm 2 mps 719 mmHg 36%
    05:00 +29°C° 0 mm 2 mps 719 mmHg 35%
    06:00 +30°C° 0 mm 3 mps 720 mmHg 33%
    07:00 +31°C° 0 mm 3 mps 720 mmHg 32%
    08:00 +33°C° 0 mm 3 mps 721 mmHg 30%
    09:00 +34°C° 0 mm 3 mps 721 mmHg 29%
    10:00 +36°C° 0 mm 3 mps 721 mmHg 27%
    11:00 +37°C° 0 mm 4 mps 721 mmHg 25%
    12:00 +38°C° 0 mm 4 mps 721 mmHg 24%
    13:00 +40°C° 0 mm 4 mps 720 mmHg 23%
    14:00 +40°C° 0 mm 4 mps 720 mmHg 22%
    15:00 +40°C° 0 mm 4 mps 720 mmHg 24%
    16:00 +38°C° 0 mm 4 mps 719 mmHg 26%
    17:00 +37°C° 0 mm 4 mps 719 mmHg 28%
    18:00 +36°C° 0 mm 3 mps 720 mmHg 32%
    19:00 +35°C° 0 mm 3 mps 720 mmHg 35%
    20:00 +34°C° 0 mm 2 mps 720 mmHg 38%
    21:00 +34°C° 0 mm 2 mps 720 mmHg 38%
    22:00 +32°C° 0 mm 2 mps 720 mmHg 38%
    23:00 +32°C° 0 mm 2 mps 720 mmHg 38%

    25 September, Monday

    Time Temperature Precipitation Wind Pressure Humidity
    00:00 +32°C° 0 mm 2 mps 720 mmHg 37%
    01:00 +31°C° 0 mm 2 mps 719 mmHg 36%
    02:00 +31°C° 0 mm 3 mps 719 mmHg 36%
    03:00 +30°C° 0 mm 3 mps 719 mmHg 39%
    04:00 +30°C° 0 mm 3 mps 719 mmHg 42%
    05:00 +29°C° 0 mm 3 mps 720 mmHg 46%
    06:00 +30°C° 0 mm 3 mps 720 mmHg 44%
    07:00 +31°C° 0 mm 3 mps 721 mmHg 42%
    08:00 +31°C° 0 mm 3 mps 721 mmHg 41%
    09:00 +34°C° 0 mm 3 mps 721 mmHg 36%
    10:00 +35°C° 0 mm 4 mps 721 mmHg 31%
    11:00 +37°C° 0 mm 4 mps 721 mmHg 26%
    12:00 +38°C° 0 mm 4 mps 721 mmHg 24%
    13:00 +40°C° 0 mm 4 mps 720 mmHg 22%
    14:00 +41°C° 0 mm 4 mps 720 mmHg 20%
    15:00 +40°C° 0 mm 4 mps 720 mmHg 21%
    16:00 +40°C° 0 mm 4 mps 720 mmHg 22%
    17:00 +38°C° 0 mm 4 mps 720 mmHg 23%
    18:00 +37°C° 0 mm 4 mps 720 mmHg 27%
    19:00 +36°C° 0 mm 3 mps 720 mmHg 30%
    20:00 +35°C° 0 mm 3 mps 720 mmHg 34%
    21:00 +34°C° 0 mm 3 mps 720 mmHg 35%
    22:00 +34°C° 0 mm 3 mps 720 mmHg 35%
    23:00 +33°C° 0 mm 3 mps 720 mmHg 36%

    26 September, Tuesday

    Time Temperature Precipitation Wind Pressure Humidity
    00:00 +33°C° 0 mm 3 mps 719 mmHg 36%
    01:00 +33°C° 0 mm 3 mps 719 mmHg 35%
    02:00 +31°C° 0 mm 3 mps 719 mmHg 35%
    03:00 +31°C° 0 mm 3 mps 719 mmHg 35%
    04:00 +31°C° 0 mm 3 mps 720 mmHg 36%
    05:00 +30°C° 0 mm 3 mps 720 mmHg 37%
    06:00 +32°C° 0 mm 4 mps 720 mmHg 33%
    07:00 +33°C° 0 mm 4 mps 721 mmHg 30%
    08:00 +34°C° 0 mm 4 mps 721 mmHg 27%
    09:00 +35°C° 0 mm 5 mps 721 mmHg 24%
    10:00 +37°C° 0 mm 5 mps 721 mmHg 20%
    11:00 +40°C° 0 mm 6 mps 721 mmHg 17%
    12:00 +40°C° 0 mm 6 mps 721 mmHg 16%
    13:00 +41°C° 0 mm 6 mps 720 mmHg 16%
    14:00 +42°C° 0 mm 6 mps 720 mmHg 15%
    15:00 +41°C° 0 mm 6 mps 720 mmHg 16%
    16:00 +40°C° 0 mm 6 mps 720 mmHg 18%
    17:00 +39°C° 0 mm 6 mps 720 mmHg 19%
    18:00 +37°C° 0 mm 5 mps 720 mmHg 22%
    19:00 +36°C° 0 mm 4 mps 720 mmHg 24%
    20:00 +34°C° 0 mm 3 mps 720 mmHg 27%
    21:00 +34°C° 0 mm 3 mps 720 mmHg 27%
    22:00 +33°C° 0 mm 3 mps 720 mmHg 28%
    23:00 +31°C° 0 mm 2 mps 720 mmHg 28%
    Show more